Showing default

LEMUR-2-STAS-GORBUK, 66686

Orbit data source: Space-Track

LEMUR-2-STAS-GORBUK, 66686 is a payload satellite owned by Spire (US) in SSO that was launched on Fri, 28 Nov 2025 UTC via an FALCON 9 launch vehicle from the Air Force Western Test Range (AFWTR). Payload-class satellites include a variety of spacecraft equipped with specific instruments for various scientific and technological missions. These include communications satellites like Starlink; space stations such as the ISS; scientific satellites like the Hubble; Earth observation satellites from companies like Planet Labs, Umbra, and HawkEye 360; GPS; miniature CubeSats for education and research; and military/defense satellites.

Loading next visibility...
Identifier
66686, 2025-276W
Orbit
SSO
Country
Flag of USUS
Related business
Manufacturer
Spire/Glasgow
Mission
Operational Commercial Com/MetRO
Bus & Motor
CUBESAT 3U, Unknown motor
Mass
7.6 kg wet, 7.6 kg dry
Launch date (UTC)
2025-11-28 (7 months ago)
Launch vehicle
FALCON 9
Launch site
Air Force Western Test Range (AFWTR)
Object type
Payload
Rocket body
Debris
Shape & HBR
Box + 2 Pan, 0.5 m
Radar Cross Section
0.063 m², Medium (>0.1 m² and < 1m²)

Expand to show TLE details & history
Last TLE update: 1 day ago

TLE from 1 day ago
0 LEMUR-2-STAS-GORBUK
1 66686U 25276W   26170.76594931  .00004501  00000-0  21576-3 0  9998
2 66686  97.4242 244.2537 0004851   6.8934 353.2367 15.19403010 30801
Epoch: 2026-06-19T18:22Z
TLE epoch observation values (Epoch: 2026-06-19T18:22:58.020Z)
Latitude
0.00002°
Longitude
60.52173°
Altitude
507.415 km
Speed
7.612 km/s
True Right ascension
16h 17m 00s
True Declination
0° 00' 00"
Sunlit
Object was in full shadow at epoch
Visualization orbit readout
Latitude
Unknown
Longitude
Unknown
Altitude
Unknown
Speed
Unknown
Apparent Right ascension
Unknown
Apparent Declination
Unknown
Sunlit
N/A
Visualization observer readout
Local Sidereal Time
08:42:13
Azimuth
Unknown
Elevation
Unknown
Doppler factor
Unknown
Orbital elements
Apogee altitude
507.95 km
Perigee altitude
501.272 km
Semi-major axis
6,882.748 km
Eccentricity
0.00049
Inclination
97.4242°
RAAN
244.2537°
Arg. of periapsis
6.8934°
True anomaly
353.23015°
Mean anomaly
353.2367°
Eccentric anomaly
353.23343°
Mean motion
3.80102 °/min
Orbital period
94.71 mins
BSTAR
0.00021576
Loading maneuver chart data...
Computing Atmospheric mass density...
Loading historical data...
Loading historical data...
Loading historical data...
Loading historical data...
Loading historical data...
Loading historical data...
Loading historical data...

Documentation

Showing up to 5 results
|